• In Belarus
  • List of Countries
  • For 7 days
  • Water Temperature
  • Weather Map
  • Weather Widgets
  • user-avatar
    Login

    Hourly Weather Bulgan

    Today, 20 August, Tuesday

    Time Temperature Precipitation Wind Pressure Humidity
    00:00 +8°C° 0 mm 2 mps 626 mmHg 89%
    01:00 +8°C° 0 mm 1 mps 627 mmHg 87%
    02:00 +8°C° 0.2 mm 1 mps 627 mmHg 89%
    03:00 +7°C° 0.2 mm 2 mps 627 mmHg 90%
    04:00 +6°C° 0.2 mm 2 mps 627 mmHg 91%
    05:00 +7°C° 0.4 mm 2 mps 627 mmHg 91%
    06:00 +7°C° 0.4 mm 2 mps 628 mmHg 92%
    07:00 +8°C° 0 mm 1 mps 628 mmHg 94%
    08:00 +9°C° 0.1 mm 1 mps 629 mmHg 89%
    09:00 +10°C° 0.1 mm 1 mps 629 mmHg 84%
    10:00 +10°C° 0.1 mm 1 mps 630 mmHg 80%
    11:00 +10°C° 0.3 mm 2 mps 630 mmHg 76%
    12:00 +12°C° 0.3 mm 2 mps 630 mmHg 72%
    13:00 +13°C° 0.3 mm 2 mps 630 mmHg 68%
    14:00 +13°C° 0.1 mm 3 mps 630 mmHg 67%
    15:00 +13°C° 0.1 mm 3 mps 630 mmHg 65%
    16:00 +14°C° 0.1 mm 3 mps 630 mmHg 64%
    17:00 +14°C° 0 mm 2 mps 630 mmHg 69%
    18:00 +12°C° 0 mm 2 mps 629 mmHg 73%
    19:00 +11°C° 0 mm 1 mps 629 mmHg 78%
    20:00 +10°C° 0 mm 1 mps 629 mmHg 79%
    21:00 +10°C° 0 mm 1 mps 629 mmHg 80%
    22:00 +9°C° 0 mm 1 mps 629 mmHg 80%
    23:00 +9°C° 0 mm 1 mps 629 mmHg 80%

    Tomorrow, 21 August, Wednesday

    Time Temperature Precipitation Wind Pressure Humidity
    00:00 +8°C° 0 mm 1 mps 629 mmHg 80%
    01:00 +8°C° 0 mm 1 mps 628 mmHg 81%
    02:00 +8°C° 0 mm 1 mps 628 mmHg 80%
    03:00 +8°C° 0 mm 1 mps 628 mmHg 80%
    04:00 +8°C° 0 mm 1 mps 628 mmHg 79%
    05:00 +9°C° 0 mm 1 mps 628 mmHg 78%
    06:00 +10°C° 0 mm 1 mps 629 mmHg 76%
    07:00 +10°C° 0 mm 0 mps 629 mmHg 74%
    08:00 +11°C° 0 mm 0 mps 629 mmHg 69%
    09:00 +13°C° 0 mm 0 mps 629 mmHg 64%
    10:00 +15°C° 0 mm 1 mps 630 mmHg 59%
    11:00 +16°C° 0 mm 1 mps 630 mmHg 56%
    12:00 +18°C° 0 mm 1 mps 630 mmHg 53%
    13:00 +19°C° 0 mm 1 mps 630 mmHg 49%
    14:00 +19°C° 0 mm 1 mps 630 mmHg 51%
    15:00 +18°C° 0 mm 2 mps 629 mmHg 52%
    16:00 +18°C° 0 mm 2 mps 629 mmHg 54%
    17:00 +17°C° 0 mm 2 mps 629 mmHg 60%
    18:00 +15°C° 0 mm 1 mps 628 mmHg 67%
    19:00 +13°C° 0 mm 1 mps 628 mmHg 74%
    20:00 +12°C° 0 mm 1 mps 628 mmHg 74%
    21:00 +12°C° 0 mm 1 mps 628 mmHg 74%
    22:00 +11°C° 0 mm 1 mps 627 mmHg 75%
    23:00 +11°C° 0.1 mm 1 mps 627 mmHg 76%

    Day after tomorrow, 22 August, Thursday

    Time Temperature Precipitation Wind Pressure Humidity
    00:00 +10°C° 0.1 mm 1 mps 627 mmHg 77%
    01:00 +10°C° 0.1 mm 1 mps 627 mmHg 78%
    02:00 +10°C° 0.2 mm 1 mps 627 mmHg 79%
    03:00 +10°C° 0.2 mm 1 mps 627 mmHg 80%
    04:00 +10°C° 0.2 mm 1 mps 626 mmHg 81%
    05:00 +10°C° 0.1 mm 1 mps 627 mmHg 80%
    06:00 +11°C° 0.1 mm 1 mps 627 mmHg 79%
    07:00 +12°C° 0.1 mm 1 mps 627 mmHg 77%
    08:00 +13°C° 0 mm 1 mps 627 mmHg 73%
    09:00 +14°C° 0 mm 1 mps 628 mmHg 68%
    10:00 +16°C° 0 mm 1 mps 628 mmHg 63%
    11:00 +18°C° 0 mm 1 mps 628 mmHg 61%
    12:00 +19°C° 0 mm 1 mps 628 mmHg 59%
    13:00 +18°C° 0 mm 2 mps 628 mmHg 56%
    14:00 +19°C° 0 mm 2 mps 628 mmHg 57%
    15:00 +19°C° 0 mm 2 mps 627 mmHg 58%
    16:00 +19°C° 0 mm 2 mps 627 mmHg 59%
    17:00 +18°C° 0 mm 1 mps 627 mmHg 66%
    18:00 +15°C° 0 mm 1 mps 626 mmHg 74%
    19:00 +14°C° 0 mm 1 mps 626 mmHg 81%
    20:00 +13°C° 0 mm 1 mps 626 mmHg 82%
    21:00 +13°C° 0 mm 1 mps 626 mmHg 82%
    22:00 +11°C° 0 mm 0 mps 626 mmHg 83%
    23:00 +11°C° 0 mm 0 mps 626 mmHg 84%

    23 August, Friday

    Time Temperature Precipitation Wind Pressure Humidity
    00:00 +10°C° 0 mm 0 mps 626 mmHg 84%
    01:00 +10°C° 0 mm 0 mps 625 mmHg 85%
    02:00 +10°C° 0 mm 0 mps 625 mmHg 85%
    03:00 +10°C° 0 mm 0 mps 625 mmHg 86%
    04:00 +9°C° 0 mm 0 mps 625 mmHg 86%
    05:00 +10°C° 0 mm 0 mps 626 mmHg 84%
    06:00 +11°C° 0 mm 0 mps 626 mmHg 82%
    07:00 +12°C° 0 mm 0 mps 627 mmHg 80%
    08:00 +13°C° 0 mm 0 mps 627 mmHg 77%
    09:00 +14°C° 0 mm 0 mps 627 mmHg 74%
    10:00 +15°C° 0 mm 0 mps 627 mmHg 71%
    11:00 +18°C° 0.5 mm 1 mps 627 mmHg 68%
    12:00 +19°C° 0.5 mm 1 mps 627 mmHg 65%
    13:00 +19°C° 0.5 mm 2 mps 627 mmHg 63%
    14:00 +19°C° 0.6 mm 2 mps 627 mmHg 63%
    15:00 +20°C° 0.6 mm 1 mps 627 mmHg 62%
    16:00 +20°C° 0.6 mm 1 mps 627 mmHg 62%
    17:00 +19°C° 0.1 mm 1 mps 626 mmHg 68%
    18:00 +16°C° 0.1 mm 1 mps 626 mmHg 73%
    19:00 +13°C° 0.1 mm 0 mps 625 mmHg 79%
    20:00 +13°C° 0 mm 0 mps 626 mmHg 80%
    21:00 +12°C° 0 mm 0 mps 626 mmHg 82%
    22:00 +13°C° 0 mm 1 mps 626 mmHg 83%
    23:00 +12°C° 0 mm 1 mps 626 mmHg 83%

    24 August, Saturday

    Time Temperature Precipitation Wind Pressure Humidity
    00:00 +12°C° 0 mm 1 mps 626 mmHg 83%
    01:00 +12°C° 0 mm 1 mps 626 mmHg 84%
    02:00 +11°C° 0 mm 1 mps 626 mmHg 84%
    03:00 +11°C° 0 mm 1 mps 625 mmHg 84%
    04:00 +10°C° 0 mm 0 mps 625 mmHg 84%
    05:00 +12°C° 0 mm 1 mps 626 mmHg 83%
    06:00 +13°C° 0 mm 1 mps 626 mmHg 81%
    07:00 +14°C° 0 mm 1 mps 627 mmHg 80%
    08:00 +16°C° 0 mm 1 mps 627 mmHg 73%
    09:00 +16°C° 0 mm 0 mps 628 mmHg 67%
    10:00 +18°C° 0 mm 0 mps 628 mmHg 61%
    11:00 +21°C° 0 mm 1 mps 628 mmHg 56%
    12:00 +23°C° 0 mm 1 mps 628 mmHg 52%
    13:00 +24°C° 0 mm 1 mps 628 mmHg 47%
    14:00 +24°C° 0 mm 1 mps 628 mmHg 50%
    15:00 +24°C° 0 mm 2 mps 627 mmHg 53%
    16:00 +24°C° 0 mm 2 mps 627 mmHg 56%
    17:00 +21°C° 0.3 mm 2 mps 626 mmHg 63%
    18:00 +19°C° 0.3 mm 2 mps 626 mmHg 71%
    19:00 +16°C° 0.3 mm 1 mps 626 mmHg 78%
    20:00 +16°C° 0.6 mm 1 mps 626 mmHg 81%
    21:00 +15°C° 0.6 mm 2 mps 626 mmHg 84%
    22:00 +14°C° 0.6 mm 2 mps 626 mmHg 87%
    23:00 +14°C° 0.6 mm 2 mps 625 mmHg 88%

    25 August, Sunday

    Time Temperature Precipitation Wind Pressure Humidity
    00:00 +13°C° 0.6 mm 1 mps 625 mmHg 90%
    01:00 +12°C° 0.6 mm 1 mps 625 mmHg 91%
    02:00 +12°C° 0.1 mm 1 mps 625 mmHg 91%
    03:00 +12°C° 0.1 mm 1 mps 624 mmHg 90%
    04:00 +11°C° 0.1 mm 1 mps 624 mmHg 90%
    05:00 +12°C° 0 mm 1 mps 624 mmHg 88%
    06:00 +12°C° 0 mm 1 mps 624 mmHg 86%
    07:00 +13°C° 0 mm 1 mps 624 mmHg 85%
    08:00 +11°C° 2 mm 3 mps 624 mmHg 87%
    09:00 +10°C° 2 mm 4 mps 624 mmHg 90%
    10:00 +9°C° 2 mm 6 mps 624 mmHg 92%
    11:00 +10°C° 0.4 mm 5 mps 625 mmHg 85%
    12:00 +12°C° 0.4 mm 5 mps 625 mmHg 79%
    13:00 +13°C° 0.4 mm 4 mps 626 mmHg 72%
    14:00 +14°C° 0.1 mm 5 mps 626 mmHg 69%
    15:00 +15°C° 0.1 mm 5 mps 626 mmHg 66%
    16:00 +15°C° 0.1 mm 6 mps 626 mmHg 63%
    17:00 +14°C° 0.1 mm 6 mps 626 mmHg 64%
    18:00 +13°C° 0.1 mm 5 mps 626 mmHg 66%
    19:00 +10°C° 0.1 mm 5 mps 626 mmHg 68%
    20:00 +10°C° 0 mm 4 mps 626 mmHg 68%
    21:00 +8°C° 0 mm 4 mps 626 mmHg 69%
    22:00 +9°C° 0 mm 3 mps 626 mmHg 69%
    23:00 +8°C° 0 mm 2 mps 626 mmHg 70%
    Show more